User: anonymous   Login
Location: *
(58.7167°N, 26.1833°E)
Time: 05:56:16
(UTC+00:00)
Language:

ERS-2 - Orbit

View from above orbital plane
View from above orbital plane
View from above satellite
View from above satellite

Ground track
Ground track

The orbit data is extracted from the following two-line orbital elements,

1 23560U 95021A   19289.95598240  .00000951  00000-0  44525-4 0  9993
2 23560  98.5129  45.6111 0002252 293.9950  66.1048 15.22777321304939
Epoch (UTC): 16 October 2019 22:56:36
Eccentricity: 0.0002252
inclination: 98.5129°
perigee height: 496 km
apogee height: 499 km
right ascension of ascending node: 45.6111°
argument of perigee: 293.9950°
revolutions per day: 15.22777321
mean anomaly at epoch: 66.1048°
orbit number at epoch: 30493

The dashed part of the orbit path shows where the satellite is in the earth's shadow,  

DLR